Find Starlink 32348

NORAD ID: 61631 Int'l Des: 2024-191 Owner: SPXS Country: US Constellation: starlink operational
LEOCIRCULAR

Live Position

Loading 3D Globe...

About Starlink 32348

Description loading...

Upcoming Passes

Passes for default location (London). Set your location on the main map for personalized predictions.

Altitude History

Loading altitude history...

Two-Line Element Set

1 61631U 24191L 26124.58378553 .00000815 00000-0 39146-4 0 9994
2 61631 42.9998 202.3989 0001168 281.8068 78.2653 15.27569558 86044
Epoch: May 4, 2026 • Age: 10 hours

Current Status

Altitude 489.0 km
Velocity 7.62 km/s
Sub-Earth Point -25.32°S, 178.32°W
Launch Date Oct 23, 2024
Age 1.5 years
Type internet

Technical Details

Classification Payload
Mass 730.00 kg
Dry Mass 700.00 kg
Total Mass 730.00 kg
Length 0.30 m
Diameter 4.10 m
Span 29.00 m
Shape Box + pan
Manufacturer SPXS
Bus Type Starlink V2M
Phase Status In Orbit
Owner/State SPXS/US

Most Searched